LGL6552 LIRF-ELLX

Flight info

Callsign LGL6552
Flight time 1h 39m
Altitude 34000
Route NEMBO DCT ELKAP DCT GOVGO DCT DEVOX DCT PIMOT DCT AOSTA DCT ORSUD DCT MOLUS DCT GILIR DCT PENDU DCT IXILU DCT EPL G21 GIVOR
Aircraft B737/M-SDE2E3FGHIRWXY/LB1

Departure

Time 2026-05-06 12:10
Airport Rome–Fiumicino Leonardo da Vinci International Airport (LIRF)

Arrival

Time 2026-05-06 13:49
Airport Luxembourg-Findel International Airport (ELLX)
Time Latitude Longitude Altitude Speed Heading
2026-05-06 11:47 41.79588 12.25917 13 ft 0 kts 295°
2026-05-06 11:58 41.79585 12.25927 13 ft 4 kts 295°
2026-05-06 11:58 41.79575 12.25955 13 ft 3 kts 296°
2026-05-06 11:58 41.79561 12.25977 13 ft 4 kts 355°
2026-05-06 11:59 41.79537 12.25970 13 ft 3 kts 25°
2026-05-06 11:59 41.79551 12.25979 13 ft 4 kts 25°
2026-05-06 11:59 41.79563 12.25987 13 ft 0 kts 25°
2026-05-06 12:02 41.79566 12.25988 13 ft 1 kts 25°
2026-05-06 12:02 41.79582 12.25998 13 ft 4 kts 25°
2026-05-06 12:02 41.79613 12.26018 13 ft 6 kts 25°
2026-05-06 12:02 41.79660 12.26048 14 ft 9 kts 25°
2026-05-06 12:03 41.79720 12.26086 13 ft 10 kts 25°
2026-05-06 12:03 41.79781 12.26136 13 ft 9 kts 30°
2026-05-06 12:03 41.79827 12.26101 13 ft 9 kts 294°
2026-05-06 12:03 41.79852 12.26029 13 ft 8 kts 295°
2026-05-06 12:04 41.79877 12.25960 13 ft 8 kts 295°
2026-05-06 12:04 41.79901 12.25892 13 ft 8 kts 295°
2026-05-06 12:04 41.79946 12.25868 13 ft 8 kts 19°
2026-05-06 12:04 41.79993 12.25898 13 ft 8 kts 25°
2026-05-06 12:05 41.80047 12.25931 13 ft 10 kts 24°
2026-05-06 12:05 41.80118 12.25974 13 ft 12 kts 24°
2026-05-06 12:05 41.80204 12.26028 13 ft 15 kts 25°
2026-05-06 12:05 41.80306 12.26091 15 ft 17 kts 25°
2026-05-06 12:06 41.80404 12.26151 14 ft 13 kts 24°
2026-05-06 12:06 41.80488 12.26178 15 ft 10 kts
2026-05-06 12:06 41.80531 12.26248 15 ft 10 kts 70°
2026-05-06 12:06 41.80555 12.26336 15 ft 10 kts 70°
2026-05-06 12:07 41.80581 12.26430 15 ft 12 kts 70°
2026-05-06 12:07 41.80612 12.26544 15 ft 14 kts 70°
2026-05-06 12:07 41.80649 12.26676 16 ft 16 kts 70°
2026-05-06 12:07 41.80691 12.26828 13 ft 19 kts 70°
2026-05-06 12:08 41.80735 12.26988 14 ft 14 kts 69°
2026-05-06 12:08 41.80802 12.27041 12 ft 12 kts 354°
2026-05-06 12:08 41.80879 12.27006 14 ft 12 kts 340°
2026-05-06 12:08 41.80949 12.26973 13 ft 8 kts 340°
2026-05-06 12:09 41.80960 12.26932 11 ft 5 kts 249°
2026-05-06 12:09 41.80946 12.26883 14 ft 9 kts 249°
2026-05-06 12:09 41.80845 12.26518 19 ft 76 kts 250°
2026-05-06 12:09 41.80586 12.25581 17 ft 135 kts 249°
2026-05-06 12:10 41.80257 12.24255 293 ft 154 kts 243°
2026-05-06 12:10 41.79920 12.22881 848 ft 162 kts 244°
2026-05-06 12:10 41.79513 12.21466 1496 ft 166 kts 242°
2026-05-06 12:10 41.79249 12.19796 1901 ft 204 kts 264°
2026-05-06 12:11 41.79226 12.17784 2172 ft 234 kts 263°
2026-05-06 12:11 41.79173 12.15491 2729 ft 252 kts 264°
2026-05-06 12:11 41.79116 12.13136 3698 ft 252 kts 264°
2026-05-06 12:11 41.79056 12.10792 4742 ft 251 kts 265°
2026-05-06 12:12 41.79016 12.08429 5684 ft 258 kts 266°
2026-05-06 12:12 41.79012 12.06019 6663 ft 258 kts 267°
2026-05-06 12:12 41.79014 12.03600 7611 ft 260 kts 267°
2026-05-06 12:12 41.79015 12.01180 8699 ft 260 kts 267°
2026-05-06 12:13 41.79013 11.98734 9703 ft 264 kts 267°
2026-05-06 12:13 41.79008 11.96241 10529 ft 274 kts 267°
2026-05-06 12:13 41.79001 11.93565 10819 ft 301 kts 268°
2026-05-06 12:13 41.78993 11.90695 11518 ft 312 kts 268°
2026-05-06 12:14 41.78985 11.87779 12473 ft 314 kts 267°
2026-05-06 12:14 41.78975 11.84817 13304 ft 322 kts 268°
2026-05-06 12:14 41.78964 11.81791 14183 ft 327 kts 267°
2026-05-06 12:14 41.78952 11.78765 15051 ft 331 kts 267°
2026-05-06 12:15 41.78939 11.75661 15924 ft 336 kts 267°
2026-05-06 12:15 41.78924 11.72508 16798 ft 341 kts 267°
2026-05-06 12:15 41.78909 11.69305 17653 ft 346 kts 266°
2026-05-06 12:15 41.78894 11.66055 18518 ft 350 kts 266°
2026-05-06 12:16 41.78877 11.62791 19388 ft 351 kts 266°
2026-05-06 12:16 41.78859 11.59514 20243 ft 352 kts 266°
2026-05-06 12:16 41.79147 11.56232 21025 ft 362 kts 282°
2026-05-06 12:16 41.80201 11.53120 21811 ft 375 kts 298°
2026-05-06 12:17 41.81842 11.50352 22603 ft 382 kts 304°
2026-05-06 12:17 41.83611 11.47654 23356 ft 387 kts 305°
2026-05-06 12:17 41.85418 11.44972 24080 ft 388 kts 305°
2026-05-06 12:17 41.87240 11.42265 24676 ft 392 kts 305°
2026-05-06 12:18 41.89070 11.39524 25234 ft 396 kts 304°
2026-05-06 12:18 41.90909 11.36744 25797 ft 400 kts 304°
2026-05-06 12:18 41.92757 11.33933 26375 ft 403 kts 304°
2026-05-06 12:18 41.94615 11.31093 26941 ft 406 kts 303°
2026-05-06 12:19 41.96489 11.28218 27503 ft 410 kts 303°
2026-05-06 12:19 41.98349 11.25360 28102 ft 411 kts 303°
2026-05-06 12:19 42.00226 11.22478 28884 ft 408 kts 303°
2026-05-06 12:19 42.02084 11.19624 29737 ft 404 kts 302°
2026-05-06 12:20 42.03925 11.16792 30446 ft 401 kts 302°
2026-05-06 12:20 42.05759 11.13963 31054 ft 399 kts 302°
2026-05-06 12:20 42.07580 11.11151 31688 ft 397 kts 302°
2026-05-06 12:20 42.09376 11.08379 32459 ft 390 kts 301°
2026-05-06 12:21 42.11154 11.05631 33099 ft 387 kts 301°
2026-05-06 12:21 42.12919 11.02894 33610 ft 387 kts 301°
2026-05-06 12:21 42.14689 11.00143 33958 ft 390 kts 301°
2026-05-06 12:21 42.16477 10.97359 33948 ft 394 kts 301°
2026-05-06 12:22 42.20055 10.91807 33951 ft 387 kts 301°
2026-05-06 12:22 42.23556 10.86356 33964 ft 388 kts 301°
2026-05-06 12:23 42.27105 10.80819 33961 ft 390 kts 301°
2026-05-06 12:23 42.29162 10.78333 33933 ft 410 kts 318°
2026-05-06 12:23 42.31823 10.76699 33933 ft 432 kts 335°
2026-05-06 12:24 42.37722 10.74863 33945 ft 436 kts 339°
2026-05-06 12:24 42.43658 10.73171 33939 ft 435 kts 338°
2026-05-06 12:25 42.49564 10.71400 33934 ft 433 kts 338°
2026-05-06 12:25 42.55390 10.69599 33950 ft 431 kts 338°
2026-05-06 12:26 42.61233 10.67782 33936 ft 430 kts 338°
2026-05-06 12:26 42.67062 10.65970 33939 ft 429 kts 338°
2026-05-06 12:27 42.72802 10.63965 33933 ft 418 kts 328°
2026-05-06 12:27 42.77978 10.60594 33946 ft 411 kts 324°
2026-05-06 12:28 42.83082 10.57045 33961 ft 413 kts 324°
2026-05-06 12:28 42.88245 10.53502 33948 ft 416 kts 325°
2026-05-06 12:29 42.93447 10.49965 33942 ft 419 kts 326°
2026-05-06 12:29 42.98676 10.46414 33938 ft 420 kts 326°
2026-05-06 12:30 43.03916 10.42850 33940 ft 421 kts 326°
2026-05-06 12:30 43.09123 10.39299 33937 ft 420 kts 326°
2026-05-06 12:31 43.14360 10.35721 33932 ft 419 kts 326°
2026-05-06 12:31 43.19419 10.31860 33939 ft 411 kts 317°
2026-05-06 12:32 43.24008 10.27204 33936 ft 410 kts 315°
2026-05-06 12:32 43.28567 10.22464 33928 ft 411 kts 315°
2026-05-06 12:33 43.33124 10.17773 33937 ft 413 kts 315°
2026-05-06 12:33 43.37731 10.13063 33932 ft 412 kts 315°
2026-05-06 12:34 43.41583 10.09131 33926 ft 411 kts 315°
2026-05-06 12:34 43.46146 10.04468 33922 ft 409 kts 315°
2026-05-06 12:35 43.50707 9.99797 33929 ft 408 kts 315°
2026-05-06 12:35 43.55259 9.95124 33915 ft 408 kts 315°
2026-05-06 12:36 43.59813 9.90441 33920 ft 408 kts 315°
2026-05-06 12:36 43.64373 9.85741 33922 ft 409 kts 314°
2026-05-06 12:37 43.68934 9.81031 33920 ft 410 kts 314°
2026-05-06 12:37 43.73474 9.76335 33918 ft 410 kts 313°
2026-05-06 12:38 43.78044 9.71600 33908 ft 410 kts 313°
2026-05-06 12:38 43.82609 9.66861 33910 ft 410 kts 313°
2026-05-06 12:39 43.87173 9.62113 33904 ft 410 kts 313°
2026-05-06 12:39 43.91735 9.57356 33904 ft 410 kts 313°
2026-05-06 12:40 43.96262 9.52627 33899 ft 409 kts 313°
2026-05-06 12:40 44.00814 9.47863 33898 ft 409 kts 313°
2026-05-06 12:41 44.05375 9.43079 33905 ft 412 kts 313°
2026-05-06 12:41 44.09956 9.38263 33896 ft 414 kts 313°
2026-05-06 12:42 44.14567 9.33408 33894 ft 416 kts 313°
2026-05-06 12:42 44.19153 9.28572 33893 ft 416 kts 313°
2026-05-06 12:43 44.23773 9.23689 33885 ft 417 kts 313°
2026-05-06 12:43 44.28390 9.18801 33875 ft 416 kts 313°
2026-05-06 12:44 44.33003 9.13905 33890 ft 416 kts 313°
2026-05-06 12:44 44.37616 9.08999 33936 ft 416 kts 313°
2026-05-06 12:45 44.42227 9.04083 33892 ft 417 kts 312°
2026-05-06 12:46 44.49145 8.96695 33873 ft 415 kts 311°
2026-05-06 12:46 44.53724 8.91792 33865 ft 413 kts 311°
2026-05-06 12:47 44.58272 8.86910 33862 ft 411 kts 311°
2026-05-06 12:47 44.62776 8.82069 33863 ft 410 kts 311°
2026-05-06 12:48 44.67308 8.77176 33853 ft 412 kts 311°
2026-05-06 12:48 44.71786 8.72141 33879 ft 410 kts 308°
2026-05-06 12:49 44.76054 8.66788 33821 ft 412 kts 307°
2026-05-06 12:49 44.80310 8.61373 33810 ft 413 kts 307°
2026-05-06 12:50 44.84588 8.55970 33802 ft 412 kts 307°
2026-05-06 12:50 44.88863 8.50592 33808 ft 411 kts 307°
2026-05-06 12:51 44.93107 8.45249 33802 ft 410 kts 307°
2026-05-06 12:51 44.97371 8.39868 33805 ft 411 kts 308°
2026-05-06 12:52 45.01636 8.34474 33804 ft 412 kts 308°
2026-05-06 12:52 45.05883 8.29092 33798 ft 413 kts 308°
2026-05-06 12:53 45.10164 8.23657 33812 ft 414 kts 308°
2026-05-06 12:53 45.14454 8.18198 33803 ft 415 kts 308°
2026-05-06 12:54 45.18742 8.12733 33806 ft 415 kts 308°
2026-05-06 12:54 45.23030 8.07254 33815 ft 415 kts 308°
2026-05-06 12:55 45.27306 8.01777 33832 ft 416 kts 308°
2026-05-06 12:55 45.31608 7.96257 33832 ft 417 kts 308°
2026-05-06 12:56 45.35912 7.90722 33822 ft 417 kts 308°
2026-05-06 12:56 45.40219 7.85172 33829 ft 418 kts 308°
2026-05-06 12:57 45.44539 7.79591 33841 ft 419 kts 308°
2026-05-06 12:57 45.48834 7.74032 33843 ft 421 kts 308°
2026-05-06 12:58 45.53207 7.68403 33884 ft 427 kts 309°
2026-05-06 12:58 45.57603 7.62822 33832 ft 417 kts 309°
2026-05-06 12:59 45.61938 7.57294 33848 ft 419 kts 309°
2026-05-06 12:59 45.66295 7.51713 33851 ft 421 kts 309°
2026-05-06 13:00 45.70670 7.46098 33917 ft 424 kts 309°
2026-05-06 13:00 45.75070 7.40439 33884 ft 425 kts 310°
2026-05-06 13:01 45.79453 7.34810 33880 ft 422 kts 311°
2026-05-06 13:01 45.84175 7.29797 33885 ft 425 kts 317°
2026-05-06 13:02 45.89061 7.25015 33858 ft 423 kts 317°
2026-05-06 13:02 45.93868 7.20176 33868 ft 421 kts 316°
2026-05-06 13:03 45.98636 7.15312 33887 ft 420 kts 316°
2026-05-06 13:03 46.03408 7.10408 33897 ft 424 kts 317°
2026-05-06 13:04 46.08214 7.05460 33911 ft 426 kts 317°
2026-05-06 13:04 46.13047 7.00482 33920 ft 426 kts 317°
2026-05-06 13:05 46.17869 6.95502 33902 ft 426 kts 318°
2026-05-06 13:05 46.22639 6.90569 33905 ft 423 kts 317°
2026-05-06 13:06 46.27415 6.85611 33914 ft 422 kts 317°
2026-05-06 13:06 46.32188 6.80649 33944 ft 422 kts 318°
2026-05-06 13:07 46.36955 6.75681 33922 ft 421 kts 317°
2026-05-06 13:07 46.41707 6.70720 33924 ft 422 kts 318°
2026-05-06 13:08 46.46649 6.66108 33904 ft 430 kts 327°
2026-05-06 13:08 46.52063 6.62339 33901 ft 431 kts 329°
2026-05-06 13:09 46.57495 6.58638 33897 ft 431 kts 329°
2026-05-06 13:09 46.62897 6.54874 33897 ft 430 kts 328°
2026-05-06 13:10 46.68274 6.51074 33900 ft 429 kts 328°
2026-05-06 13:10 46.73612 6.47287 33913 ft 429 kts 329°
2026-05-06 13:11 46.78960 6.43481 33916 ft 427 kts 329°
2026-05-06 13:11 46.84290 6.39680 33897 ft 425 kts 329°
2026-05-06 13:12 46.89596 6.35890 33899 ft 424 kts 329°
2026-05-06 13:12 46.94888 6.32101 33902 ft 423 kts 329°
2026-05-06 13:13 47.00178 6.28305 33905 ft 424 kts 329°
2026-05-06 13:13 47.05486 6.24488 33907 ft 425 kts 330°
2026-05-06 13:14 47.10800 6.20673 33903 ft 425 kts 330°
2026-05-06 13:14 47.16087 6.16880 33911 ft 426 kts 330°
2026-05-06 13:15 47.21405 6.13055 33896 ft 425 kts 330°
2026-05-06 13:15 47.26705 6.09231 33885 ft 424 kts 330°
2026-05-06 13:16 47.31992 6.05429 33879 ft 423 kts 333°
2026-05-06 13:16 47.34802 6.04029 33881 ft 426 kts 345°
2026-05-06 13:16 47.37736 6.03314 33883 ft 429 kts 354°
2026-05-06 13:17 47.43720 6.03332 33882 ft 431 kts
2026-05-06 13:17 47.49715 6.03560 33870 ft 433 kts 360°
2026-05-06 13:18 47.55746 6.03725 33871 ft 432 kts 359°
2026-05-06 13:18 47.61741 6.03850 33867 ft 432 kts 359°
2026-05-06 13:19 47.67717 6.03970 33860 ft 431 kts 359°
2026-05-06 13:19 47.73696 6.04093 33853 ft 429 kts 359°
2026-05-06 13:20 47.78690 6.04227 33857 ft 428 kts
2026-05-06 13:20 47.84611 6.04418 33856 ft 428 kts
2026-05-06 13:21 47.90568 6.04610 33849 ft 428 kts
2026-05-06 13:21 47.96521 6.04796 33850 ft 428 kts
2026-05-06 13:21 47.99504 6.04889 33475 ft 431 kts
2026-05-06 13:22 48.02501 6.04982 33006 ft 429 kts
2026-05-06 13:22 48.05479 6.05074 32456 ft 427 kts
2026-05-06 13:22 48.08447 6.05167 31895 ft 426 kts
2026-05-06 13:22 48.11405 6.05259 31485 ft 423 kts
2026-05-06 13:23 48.14339 6.05350 31081 ft 420 kts
2026-05-06 13:23 48.17250 6.05442 30705 ft 417 kts
2026-05-06 13:23 48.20145 6.05533 30322 ft 414 kts
2026-05-06 13:23 48.23012 6.05623 29957 ft 410 kts
2026-05-06 13:24 48.25848 6.05712 29524 ft 406 kts
2026-05-06 13:24 48.28653 6.05836 29145 ft 399 kts
2026-05-06 13:24 48.31353 6.06572 28770 ft 391 kts 18°
2026-05-06 13:24 48.33874 6.07970 28392 ft 383 kts 28°
2026-05-06 13:25 48.36157 6.09946 28040 ft 376 kts 35°
2026-05-06 13:25 48.38344 6.12077 27637 ft 372 kts 36°
2026-05-06 13:25 48.40462 6.14176 27309 ft 367 kts 36°
2026-05-06 13:25 48.42602 6.16297 26936 ft 366 kts 36°
2026-05-06 13:26 48.44721 6.18385 26576 ft 365 kts 35°
2026-05-06 13:26 48.46853 6.20475 26201 ft 366 kts 35°
2026-05-06 13:26 48.48987 6.22559 25823 ft 365 kts 34°
2026-05-06 13:26 48.51115 6.24634 25482 ft 364 kts 34°
2026-05-06 13:27 48.53237 6.26706 25101 ft 363 kts 34°
2026-05-06 13:27 48.55350 6.28768 24737 ft 361 kts 35°
2026-05-06 13:27 48.57451 6.30820 24376 ft 358 kts 34°
2026-05-06 13:27 48.59535 6.32858 24008 ft 356 kts 34°
2026-05-06 13:28 48.61603 6.34883 23648 ft 353 kts 34°
2026-05-06 13:28 48.63656 6.36894 23274 ft 350 kts 34°
2026-05-06 13:28 48.65714 6.38862 22840 ft 349 kts 30°
2026-05-06 13:28 48.67982 6.40136 22456 ft 346 kts 16°
2026-05-06 13:29 48.70269 6.41059 22076 ft 343 kts 14°
2026-05-06 13:29 48.72575 6.41936 21715 ft 341 kts 15°
2026-05-06 13:29 48.74885 6.42816 21371 ft 344 kts 15°
2026-05-06 13:29 48.77217 6.43720 20985 ft 348 kts 15°
2026-05-06 13:30 48.79561 6.44641 20602 ft 347 kts 15°
2026-05-06 13:30 48.81892 6.45568 20242 ft 345 kts 15°
2026-05-06 13:30 48.84211 6.46497 19867 ft 343 kts 15°
2026-05-06 13:30 48.86509 6.47425 19509 ft 340 kts 15°
2026-05-06 13:31 48.88794 6.48350 19148 ft 338 kts 15°
2026-05-06 13:31 48.91064 6.49271 18775 ft 337 kts 15°
2026-05-06 13:31 48.93326 6.50191 18422 ft 335 kts 15°
2026-05-06 13:31 48.95574 6.51106 18055 ft 334 kts 15°
2026-05-06 13:32 48.97818 6.52020 17610 ft 333 kts 15°
2026-05-06 13:32 49.00043 6.52927 17237 ft 328 kts 15°
2026-05-06 13:32 49.02230 6.53820 16886 ft 324 kts 15°
2026-05-06 13:32 49.04370 6.54694 16517 ft 321 kts 15°
2026-05-06 13:33 49.06514 6.55571 16168 ft 317 kts 15°
2026-05-06 13:33 49.08632 6.56438 15801 ft 314 kts 15°
2026-05-06 13:33 49.10731 6.57298 15448 ft 311 kts 14°
2026-05-06 13:33 49.12813 6.58152 15094 ft 309 kts 14°
2026-05-06 13:34 49.14884 6.59001 14742 ft 306 kts 14°
2026-05-06 13:34 49.16930 6.59842 14386 ft 304 kts 13°
2026-05-06 13:34 49.18969 6.60680 14035 ft 302 kts 14°
2026-05-06 13:34 49.20990 6.61509 13697 ft 300 kts 14°
2026-05-06 13:35 49.23030 6.61932 13289 ft 294 kts 351°
2026-05-06 13:35 49.24988 6.61171 12935 ft 288 kts 335°
2026-05-06 13:35 49.26817 6.59957 12579 ft 285 kts 333°
2026-05-06 13:35 49.28605 6.58680 12231 ft 283 kts 333°
2026-05-06 13:36 49.30388 6.57404 11862 ft 282 kts 333°
2026-05-06 13:36 49.32170 6.56142 11532 ft 281 kts 333°
2026-05-06 13:36 49.33938 6.54904 11188 ft 279 kts 332°
2026-05-06 13:36 49.35681 6.53688 10848 ft 278 kts 334°
2026-05-06 13:37 49.37467 6.52450 10501 ft 278 kts 334°
2026-05-06 13:37 49.39226 6.51234 10157 ft 277 kts 333°
2026-05-06 13:37 49.40943 6.50047 9994 ft 270 kts 333°
2026-05-06 13:37 49.42650 6.48866 9864 ft 269 kts 333°
2026-05-06 13:38 49.44373 6.47671 9593 ft 276 kts 333°
2026-05-06 13:38 49.46138 6.46447 9234 ft 277 kts 333°
2026-05-06 13:38 49.47906 6.45271 8897 ft 276 kts 340°
2026-05-06 13:38 49.49812 6.45023 8661 ft 278 kts
2026-05-06 13:39 49.51741 6.45134 8404 ft 279 kts 348°
2026-05-06 13:39 49.53465 6.43937 8222 ft 269 kts 315°
2026-05-06 13:39 49.54554 6.41677 8139 ft 265 kts 291°
2026-05-06 13:39 49.54904 6.38918 7879 ft 261 kts 269°
2026-05-06 13:40 49.54597 6.36195 7627 ft 258 kts 250°
2026-05-06 13:40 49.53996 6.33642 7432 ft 257 kts 248°
2026-05-06 13:40 49.53341 6.31079 7193 ft 257 kts 248°
2026-05-06 13:40 49.52682 6.28523 6961 ft 257 kts 248°
2026-05-06 13:41 49.52031 6.25964 6728 ft 257 kts 249°
2026-05-06 13:41 49.51388 6.23397 6506 ft 256 kts 249°
2026-05-06 13:41 49.50748 6.20846 6245 ft 253 kts 249°
2026-05-06 13:41 49.50123 6.18352 6033 ft 247 kts 249°
2026-05-06 13:42 49.49514 6.15909 5798 ft 242 kts 249°
2026-05-06 13:42 49.48918 6.13521 5594 ft 236 kts 249°
2026-05-06 13:42 49.48336 6.11189 5385 ft 230 kts 249°
2026-05-06 13:42 49.47770 6.08928 5187 ft 223 kts 249°
2026-05-06 13:43 49.47222 6.06738 5000 ft 216 kts 250°
2026-05-06 13:43 49.46997 6.04525 4801 ft 208 kts 281°
2026-05-06 13:43 49.47547 6.02549 4665 ft 200 kts 307°
2026-05-06 13:43 49.48581 6.01139 4484 ft 199 kts 327°
2026-05-06 13:44 49.49762 6.00072 4333 ft 198 kts 329°
2026-05-06 13:44 49.50943 5.99049 4165 ft 190 kts 330°
2026-05-06 13:44 49.52072 5.98088 3991 ft 180 kts 335°
2026-05-06 13:44 49.53259 5.97956 3817 ft 173 kts 22°
2026-05-06 13:45 49.54114 5.99158 3707 ft 163 kts 47°
2026-05-06 13:45 49.55482 6.01987 3426 ft 166 kts 53°
2026-05-06 13:45 49.56101 6.03496 3275 ft 167 kts 54°
2026-05-06 13:46 49.56702 6.05031 3134 ft 168 kts 58°
2026-05-06 13:46 49.57263 6.06592 2995 ft 166 kts 57°
2026-05-06 13:46 49.57811 6.08089 2815 ft 154 kts 56°
2026-05-06 13:46 49.58310 6.09443 2638 ft 140 kts 56°
2026-05-06 13:47 49.58775 6.10703 2459 ft 131 kts 56°
2026-05-06 13:47 49.59223 6.11911 2248 ft 131 kts 55°
2026-05-06 13:47 49.59676 6.13112 2047 ft 127 kts 56°
2026-05-06 13:47 49.60113 6.14322 1876 ft 131 kts 58°
2026-05-06 13:48 49.60562 6.15571 1726 ft 134 kts 56°
2026-05-06 13:48 49.61035 6.16805 1524 ft 132 kts 56°
2026-05-06 13:48 49.61489 6.18041 1332 ft 134 kts 56°
2026-05-06 13:48 49.61957 6.19293 1170 ft 130 kts 59°
2026-05-06 13:49 49.62324 6.20293 1224 ft 88 kts 60°
2026-05-06 13:49 49.62569 6.20949 1248 ft 62 kts 60°
2026-05-06 13:49 49.62768 6.21484 1222 ft 55 kts 59°
2026-05-06 13:49 49.62929 6.21918 1214 ft 37 kts 60°
2026-05-06 13:50 49.63016 6.22131 1213 ft 13 kts 29°
2026-05-06 13:50 49.63084 6.22106 1216 ft 10 kts 329°
2026-05-06 13:50 49.63141 6.22054 1223 ft 9 kts 330°
2026-05-06 13:50 49.63179 6.21990 1227 ft 8 kts 278°
2026-05-06 13:51 49.63161 6.21912 1226 ft 8 kts 241°
2026-05-06 13:51 49.63135 6.21834 1225 ft 9 kts 245°
2026-05-06 13:51 49.63157 6.21760 1227 ft 9 kts 329°
2026-05-06 13:51 49.63208 6.21716 1228 ft 8 kts 330°
2026-05-06 13:52 49.63253 6.21663 1229 ft 7 kts 305°
2026-05-06 13:52 49.63292 6.21642 1229 ft 4 kts 357°
2026-05-06 13:52 49.63314 6.21640 1229 ft 3 kts 358°
2026-05-06 13:52 49.63330 6.21639 1229 ft 1 kts 358°
2026-05-06 13:53 49.63331 6.21639 1229 ft 0 kts 358°